Tracking 25710 objects as of 7-Jul-2022
HD Live streaming from Space Station
objects crossing your sky now

FENGYUN 1C DEB

Track FENGYUN 1C DEB now!
10-day predictions


NORAD ID: 31047
Int'l Code: 1999-025BER
Perigee: 843.7 km
Apogee: 884.0 km
Inclination: 98.7 °
Period: 102.1 minutes
Semi major axis: 7234 km
RCS: 0.0107 m2 (small)
Launch date: May 10, 1999
Source: People's Republic of China (PRC)
Launch site: Taiyaun Space Center, China (TSC)

Note: This is SATELLITE DEBRIS
aabbcc
Your satellite tracking list
Your tracking list is empty




NASA's NSSDC Master Catalog

Two Line Element Set (TLE):
1 31047U 99025BER 22187.49686515  .00000310  00000-0  19604-3 0  9991
2 31047  98.7113 206.2946 0027817 147.9818  12.1645 14.10782890786435
Source of the keplerian elements: AFSPC